Location: Huesca
(42.1318°N, 0.4078°W)
Time: 15:09:27
(UTC+02:00)

Transit 4A - All Passes

Search period start: 19 July 2024 00:00
Search period end: 29 July 2024 00:00
Orbit: 870 x 973 km, 66.8° (Epoch: 19 July)

Date Brightness Start Highest point End Pass type
(mag) Time Alt. Az. Time Alt. Az. Time Alt. Az.
19 Jul - 00:43:50 10° N 00:45:54 12° NNE 00:47:59 10° NE visible
19 Jul - 02:28:01 10° NNW 02:33:48 47° NE 02:39:42 10° SE visible
19 Jul - 04:14:41 10° NW 04:19:56 31° WSW 04:25:16 10° S visible
19 Jul - 17:35:12 10° S 17:40:50 55° ESE 17:46:31 10° NE daylight
19 Jul - 19:22:35 10° WSW 19:27:28 27° NW 19:32:26 10° NNE daylight
20 Jul - 00:51:59 10° N 00:55:26 15° NE 00:58:55 10° ENE visible
20 Jul - 02:36:54 10° NNW 02:42:55 66° ENE 02:49:04 10° SE visible
20 Jul - 04:24:20 10° WNW 04:28:43 21° WSW 04:33:10 10° SSW visible
20 Jul - 16:02:51 10° ESE 16:04:27 11° E 16:06:03 10° E daylight
20 Jul - 17:43:59 10° SSW 17:49:47 82° ESE 17:55:38 10° NNE daylight
20 Jul - 19:32:34 10° W 19:36:48 20° NW 19:41:06 10° N daylight
21 Jul - 01:00:29 10° N 01:04:52 20° NE 01:09:18 10° E visible
21 Jul - 02:45:53 10° NNW 02:51:57 87° WSW 02:58:10 10° SSE visible
21 Jul - 04:34:35 10° WNW 04:37:26 14° WSW 04:40:18 10° SW visible
21 Jul - 16:09:21 10° SE 16:13:08 18° ESE 16:16:55 10° ENE daylight
21 Jul - 17:53:00 10° SW 17:58:48 70° WNW 18:04:38 10° NNE daylight
21 Jul - 19:42:53 10° WNW 19:46:14 15° NW 19:49:37 10° N daylight
22 Jul - 01:09:08 10° NNW 01:14:12 27° NE 01:19:20 10° ESE visible
22 Jul - 02:54:58 10° NW 03:00:56 61° WSW 03:07:01 10° SSE visible
22 Jul - 16:17:05 10° SSE 16:21:53 27° ESE 16:26:42 10° NE daylight
22 Jul - 18:02:18 10° SW 18:07:53 48° NW 18:13:33 10° NNE daylight
22 Jul - 19:53:45 10° NW 19:55:45 12° NNW 19:57:46 10° N daylight
23 Jul - 01:17:54 10° NNW 01:23:27 37° NE 01:29:07 10° ESE visible
23 Jul - 03:04:11 10° NW 03:09:49 41° WSW 03:15:34 10° S visible
23 Jul - 16:25:18 10° S 16:30:41 41° ESE 16:36:07 10° NE daylight
23 Jul - 18:11:49 10° WSW 18:17:04 34° NW 18:22:23 10° NNE daylight
23 Jul - 23:42:16 10° N 23:44:51 13° NNE 23:47:27 10° ENE visible
24 Jul - 01:26:44 10° NNW 01:32:37 52° NE 01:38:38 10° SE visible
24 Jul - 03:13:36 10° NW 03:18:39 28° WSW 03:23:47 10° SSW visible
24 Jul - 16:33:52 10° SSW 16:39:34 62° ESE 16:45:20 10° NE daylight
24 Jul - 18:21:36 10° W 18:26:20 25° NW 18:31:08 10° N daylight
24 Jul - 23:50:34 10° N 23:54:20 17° NE 23:58:09 10° ENE visible
25 Jul - 01:35:39 10° NNW 01:41:42 74° ENE 01:47:54 10° SE visible
25 Jul - 03:23:22 10° WNW 03:27:25 19° WSW 03:31:32 10° SSW visible
25 Jul - 15:00:35 10° SE 15:03:07 13° ESE 15:05:39 10° ENE daylight
25 Jul - 16:42:43 10° SSW 16:48:32 90° NNW 16:54:25 10° NNE daylight
25 Jul - 18:31:41 10° W 18:35:41 19° NW 18:39:45 10° N daylight
25 Jul - 23:59:07 10° N 00:03:44 22° NE 00:08:26 10° E visible
26 Jul - 01:44:39 10° NNW 01:50:44 79° WSW 01:56:56 10° SSE visible
26 Jul - 03:34:03 10° W 03:36:06 12° W 03:38:10 10° WSW visible
26 Jul - 15:07:40 10° SSE 15:11:48 21° ESE 15:15:58 10° ENE daylight
26 Jul - 16:51:49 10° SW 16:57:34 62° WNW 17:03:23 10° NNE daylight
26 Jul - 18:42:07 10° WNW 18:45:08 14° NW 18:48:12 10° N daylight
27 Jul - 00:07:48 10° NNW 00:13:03 30° NE 00:18:23 10° ESE visible
27 Jul - 01:53:46 10° NW 01:59:40 54° WSW 02:05:42 10° S visible
27 Jul - 15:15:34 10° S 15:20:34 31° ESE 15:25:37 10° NE daylight
27 Jul - 17:01:10 10° SW 17:06:41 43° NW 17:12:16 10° NNE daylight
27 Jul - 18:53:17 10° NW 18:54:41 11° NNW 18:56:04 10° NNW daylight
27 Jul - 22:33:00 10° NNE 22:34:12 11° NNE 22:35:25 10° NE visible
28 Jul - 00:16:34 10° NNW 00:22:17 41° NE 00:28:05 10° ESE visible
28 Jul - 02:03:02 10° NW 02:08:33 37° WSW 02:14:10 10° S visible
28 Jul - 15:23:54 10° S 15:29:24 47° ESE 15:34:57 10° NE daylight
28 Jul - 17:10:46 10° WSW 17:15:53 31° NW 17:21:04 10° NNE daylight
28 Jul - 22:40:44 10° N 22:43:45 14° NE 22:46:48 10° ENE visible
